Fremont, MI

5:39 PM EDT on September 19, 2019 (GMT -0400)
Fremont

Weather History for KFFX - June, 2019

Change the Weather History Date:

Monday, June 10, 2019

  Actual Average (KMKG) Record (KMKG)
Temperature  
Mean Temperature 60 °F -  
Max Temperature 67 °F 73 °F 89 °F (1999)
Min Temperature 51 °F 51 °F 33 °F (1980)
Degree Days  
Heating Degree Days 6    
Growing Degree Days 10 (Base 50)    
Moisture  
Dew Point 53 °F    
Average Humidity 79    
Maximum Humidity 100    
Minimum Humidity 35    
Precipitation  
Precipitation 0.00 in - - ()
Sea Level Pressure  
Sea Level Pressure 29.99 in    
Wind  
Wind Speed 8 mph ()    
Max Wind Speed 22 mph    
Max Gust Speed 30 mph    
Visibility 8.3 miles    
Events Rain    
Averages and records for this station are not official NWS values.
T = Trace of Precipitation, MM = Missing Value Source: Averaged Metar Reports

Daily Weather History Graph

Daily Weather History Graph

Search for Another Location

Airport or City:

Astronomy

Jun. 10, 2019 Rise Set
Actual Time 6:03 AM EDT 9:24 PM EDT
Civil Twilight 5:27 AM EDT 9:59 PM EDT
Nautical Twilight 4:41 AM EDT 10:45 PM EDT
Astronomical Twilight 3:44 AM EDT 11:43 PM EDT
Moon 2:00 PM EDT (6/10) 2:29 AM EDT (6/10)
Length of Visible Light 16h 31m
Length of Day
15h 20m
First Quarter, 55% of the Moon is Illuminated
Jun 10
First Quarter
Jun 17
Full
Jun 25
Last Quarter
Jul 2
New
Jul 9
First Quarter

Hourly Weather History & Observations

Time (EDT) Temp. Dew Point Humidity Pressure Visibility Wind Dir Wind Speed Gust Speed Precip Events Conditions
12:17 AM 65.7 °F 65.7 °F 100% 29.92 in 7.0 mi Calm Calm - N/A   Overcast
12:35 AM 65.7 °F 65.5 °F 99% 29.92 in 2.5 mi Calm Calm - N/A   Heavy Drizzle
12:36 AM 65.7 °F 65.5 °F 99% 29.92 in 2.5 mi Calm Calm - N/A   Heavy Drizzle
12:55 AM 65.7 °F 65.5 °F 99% 29.91 in 3.0 mi Calm Calm - N/A   Light Drizzle
1:15 AM 65.7 °F 65.5 °F 99% 29.90 in 2.0 mi Calm Calm - N/A   Overcast
1:38 AM 65.7 °F 65.5 °F 99% 29.89 in 1.2 mi SSW 3.5 mph - N/A   Drizzle
1:56 AM 65.7 °F 65.5 °F 99% 29.89 in 2.0 mi WSW 3.5 mph - N/A Rain Light Rain
2:15 AM 65.8 °F 65.7 °F 99% 29.89 in 1.8 mi WSW 3.5 mph - N/A   Drizzle
2:35 AM 65.7 °F 65.5 °F 99% 29.88 in 4.0 mi West 9.2 mph - N/A Rain Light Rain
2:36 AM 65.7 °F 65.5 °F 99% 29.88 in 5.0 mi West 8.1 mph - N/A Rain Light Rain
2:58 AM 65.3 °F 65.3 °F 100% 29.88 in 10.0 mi WNW 12.7 mph - N/A   Overcast
3:17 AM 64.8 °F 64.6 °F 99% 29.87 in 10.0 mi NW 9.2 mph - N/A   Overcast
3:35 AM 64.2 °F 64.0 °F 99% 29.87 in 10.0 mi NW 8.1 mph - N/A   Overcast
3:55 AM 63.7 °F 63.5 °F 99% 29.87 in 10.0 mi NW 6.9 mph - N/A   Overcast
4:15 AM 62.8 °F 62.6 °F 99% 29.86 in 10.0 mi NNW 6.9 mph - N/A   Overcast
4:20 AM 62.6 °F 62.6 °F 100% 29.86 in 10.0 mi NNW 6.9 mph - N/A   Overcast
4:38 AM 62.6 °F 62.6 °F 100% 29.87 in 10.0 mi NW 9.2 mph - N/A   Overcast
4:56 AM 62.4 °F 62.1 °F 99% 29.87 in 10.0 mi NW 10.4 mph - N/A   Overcast
5:15 AM 62.1 °F 61.7 °F 99% 29.87 in 10.0 mi NW 8.1 mph - N/A   Overcast
5:35 AM 61.7 °F 61.3 °F 99% 29.87 in 10.0 mi WNW 6.9 mph - N/A   Overcast
5:59 AM 61.3 °F 61.0 °F 99% 29.88 in 10.0 mi WNW 5.8 mph - N/A   Overcast
6:17 AM 61.0 °F 60.8 °F 99% 29.88 in 10.0 mi WNW 6.9 mph - N/A   Overcast
6:35 AM 60.8 °F 60.6 °F 99% 29.89 in 10.0 mi WNW 9.2 mph - N/A   Overcast
6:36 AM 60.8 °F 60.6 °F 99% 29.89 in 10.0 mi WNW 8.1 mph - N/A   Overcast
6:55 AM 60.8 °F 60.4 °F 99% 29.91 in 1.5 mi NW 9.2 mph - N/A Rain Rain
6:56 AM 60.8 °F 60.4 °F 99% 29.91 in 1.5 mi NW 10.4 mph - N/A Rain Rain
7:15 AM 60.3 °F 60.1 °F 99% 29.92 in 3.0 mi NW 13.8 mph - N/A   Light Drizzle
7:38 AM 58.6 °F 58.1 °F 98% 29.92 in 3.0 mi NW 13.8 mph - N/A   Overcast
7:56 AM 57.4 °F 57.2 °F 99% 29.94 in 2.5 mi NW 13.8 mph - N/A   Overcast
8:15 AM 57.0 °F 56.5 °F 98% 29.94 in 4.0 mi NW 15.0 mph 19.6 mph N/A   Overcast
8:35 AM 56.8 °F 56.3 °F 98% 29.95 in 10.0 mi NW 12.7 mph 20.7 mph N/A   Overcast
8:36 AM 56.8 °F 56.3 °F 98% 29.95 in 10.0 mi NNW 15.0 mph 20.7 mph N/A   Overcast
8:59 AM 56.7 °F 55.8 °F 97% 29.94 in 10.0 mi NNW 13.8 mph - N/A   Overcast
9:17 AM 55.8 °F 55.0 °F 97% 29.95 in 7.0 mi NNW 15.0 mph 26.5 mph N/A   Overcast
9:35 AM 55.6 °F 55.0 °F 98% 29.96 in 5.0 mi NNW 16.1 mph 23.0 mph N/A   Overcast
9:55 AM 55.0 °F 54.5 °F 98% 29.97 in 2.0 mi NW 17.3 mph 21.9 mph N/A Rain Rain
9:56 AM 54.9 °F 54.5 °F 99% 29.97 in 2.0 mi NW 15.0 mph 21.9 mph N/A Rain Rain
10:15 AM 54.0 °F 53.4 °F 98% 29.98 in 7.0 mi NNW 20.7 mph 27.6 mph N/A   Overcast
10:20 AM 53.8 °F 52.9 °F 97% 29.97 in 7.0 mi NNW 20.7 mph 27.6 mph N/A Rain Light Rain
10:38 AM 53.8 °F 53.2 °F 98% 29.99 in 7.0 mi NNW 18.4 mph 21.9 mph N/A Rain Light Rain
10:56 AM 53.8 °F 52.9 °F 97% 29.99 in 10.0 mi NNW 17.3 mph 27.6 mph N/A   Overcast
11:15 AM 54.0 °F 53.2 °F 97% 29.99 in 10.0 mi NNW 18.4 mph 23.0 mph N/A   Light Drizzle
11:16 AM 54.0 °F 53.1 °F 97% 29.99 in 10.0 mi NNW 19.6 mph 23.0 mph N/A   Light Drizzle
11:35 AM 53.8 °F 52.7 °F 96% 30.00 in 10.0 mi NNW 12.7 mph 25.3 mph N/A   Overcast
11:36 AM 53.8 °F 52.7 °F 96% 30.00 in 10.0 mi NW 11.5 mph 25.3 mph N/A   Overcast
11:59 AM 53.6 °F 51.8 °F 94% 30.01 in 10.0 mi NNW 19.6 mph 28.8 mph N/A   Overcast
12:17 PM 54.1 °F 51.6 °F 91% 30.02 in 10.0 mi NNW 18.4 mph 26.5 mph N/A   Overcast
12:35 PM 54.7 °F 51.4 °F 89% 30.03 in 10.0 mi NNW 17.3 mph 23.0 mph N/A   Overcast
12:36 PM 54.9 °F 51.4 °F 88% 30.03 in 10.0 mi NNW 17.3 mph 23.0 mph N/A   Overcast
12:55 PM 55.8 °F 50.9 °F 84% 30.04 in 10.0 mi NW 19.6 mph 26.5 mph N/A   Overcast
1:15 PM 58.6 °F 51.6 °F 77% 30.03 in 10.0 mi NNW 16.1 mph 23.0 mph N/A   Overcast
1:29 PM 59.4 °F 50.9 °F 74% 30.03 in 10.0 mi NNW 16.1 mph 25.3 mph N/A   Overcast
2:47 PM 62.6 °F 48.2 °F 59% 30.04 in 10.0 mi NNW 19.6 mph 28.8 mph N/A   Overcast
3:35 PM 64.4 °F 46.4 °F 52% 30.05 in 10.0 mi NW 15.0 mph 26.5 mph N/A   Overcast
4:09 PM 64.6 °F 45.0 °F 49% 30.05 in 10.0 mi NNW 16.1 mph 25.3 mph N/A   Mostly Cloudy
4:17 PM 64.6 °F 44.8 °F 49% 30.06 in 10.0 mi NNW 17.3 mph 24.2 mph N/A   Mostly Cloudy
4:35 PM 65.1 °F 44.1 °F 46% 30.06 in 10.0 mi NNW 17.3 mph 24.2 mph N/A   Mostly Cloudy
4:55 PM 67.1 °F 43.2 °F 42% 30.06 in 10.0 mi NW 21.9 mph 26.5 mph N/A   Mostly Cloudy
4:56 PM 67.3 °F 43.2 °F 42% 30.06 in 10.0 mi NNW 20.7 mph 26.5 mph N/A   Mostly Cloudy
5:15 PM 67.1 °F 41.2 °F 39% 30.06 in 10.0 mi NW 20.7 mph 29.9 mph N/A   Mostly Cloudy
5:20 PM 67.1 °F 41.9 °F 40% 30.06 in 10.0 mi NNW 19.6 mph 27.6 mph N/A   Scattered Clouds
5:38 PM 67.1 °F 41.5 °F 39% 30.06 in 10.0 mi NNW 18.4 mph 26.5 mph N/A   Clear
5:56 PM 67.1 °F 40.3 °F 38% 30.07 in 10.0 mi NNW 19.6 mph 25.3 mph N/A   Scattered Clouds
6:15 PM 67.6 °F 41.9 °F 39% 30.07 in 10.0 mi NW 13.8 mph - N/A   Scattered Clouds
6:35 PM 67.1 °F 39.0 °F 36% 30.07 in 10.0 mi NW 18.4 mph 24.2 mph N/A   Clear
6:36 PM 67.1 °F 39.0 °F 36% 30.07 in 10.0 mi NW 16.1 mph 24.2 mph N/A   Clear
6:59 PM 67.1 °F 38.5 °F 35% 30.07 in 10.0 mi NW 15.0 mph - N/A   Clear
7:17 PM 66.6 °F 37.9 °F 35% 30.07 in 10.0 mi NW 13.8 mph 19.6 mph N/A   Clear
7:35 PM 66.6 °F 40.5 °F 38% 30.08 in 10.0 mi NW 10.4 mph - N/A   Clear
7:36 PM 66.6 °F 40.1 °F 38% 30.08 in 10.0 mi NW 8.1 mph - N/A   Clear
7:55 PM 66.2 °F 40.5 °F 39% 30.08 in 10.0 mi WNW 8.1 mph - N/A   Clear
7:56 PM 66.2 °F 40.6 °F 39% 30.08 in 10.0 mi WNW 5.8 mph - N/A   Clear
8:15 PM 65.5 °F 39.6 °F 39% 30.08 in 10.0 mi WNW 6.9 mph - N/A   Clear
8:38 PM 63.9 °F 41.4 °F 44% 30.09 in 10.0 mi WNW 4.6 mph - N/A   Clear
8:56 PM 63.0 °F 42.8 °F 48% 30.09 in 10.0 mi West 4.6 mph - N/A   Clear
9:15 PM 61.5 °F 44.8 °F 54% 30.10 in 10.0 mi West 3.5 mph - N/A   Clear
9:16 PM 61.3 °F 44.8 °F 55% 30.10 in 10.0 mi West 3.5 mph - N/A   Clear
9:35 PM 60.1 °F 45.7 °F 59% 30.10 in 10.0 mi WSW 4.6 mph - N/A   Clear
9:59 PM 57.2 °F 46.6 °F 68% 30.11 in 10.0 mi WSW 3.5 mph - N/A   Clear
10:16 PM 57.2 °F 46.6 °F 68% 30.11 in 10.0 mi WSW 4.6 mph - N/A   Clear
10:35 PM 55.4 °F 47.7 °F 75% 30.11 in 10.0 mi SW 4.6 mph - N/A   Clear
10:36 PM 55.2 °F 47.7 °F 76% 30.11 in 10.0 mi WSW 4.6 mph - N/A   Clear
10:55 PM 53.6 °F 47.3 °F 79% 30.11 in 10.0 mi SSW 3.5 mph - N/A   Clear
10:56 PM 53.4 °F 47.3 °F 80% 30.11 in 10.0 mi SSW 3.5 mph - N/A   Clear
11:15 PM 52.7 °F 47.1 °F 81% 30.11 in 10.0 mi SW 3.5 mph - N/A   Clear
11:37 PM 52.2 °F 47.5 °F 84% 30.11 in 10.0 mi SW 5.8 mph - N/A   Clear
11:56 PM 51.1 °F 48.6 °F 91% 30.11 in 10.0 mi SW 3.5 mph - N/A   Clear